Weather in Watamu

Kenya     3°21′34″S   40°00′16″E
temp.,
°C
wind,
m/s
gust,
m/s
humid.,
%
clouds,
%
prec.,
mm/h
press.,
hPa
HPBL,
m
10 august, wed
wed1000:00+23s6118640 0.1 1016705
03:00+22sse6108743 0.9 1015594
06:00+22s61187100 0.6 1016601
09:00+25s7107218 1.0 10171072
12:00+27sse8106097 0.4 10171320
15:00+27sse8106070 0.4 10141277
18:00+24sse610755 0.0 1015991
21:00+23sse5108310 0.1 1016714
11 august, thu
thu1100:00+22sse598618 0.3 1016491
03:00+22sse6108997 1.4 1014513
06:00+22sse499098 0.8 1016371
09:00+24sse6878100 3.0 1017871
12:00+26sse7106513 1.3 10171230
15:00+27sse710615 1.3 10141296
18:00+24sse610746 0.1 10151030
21:00+23s6108130 0.1 1016707
12 august, fri
fri1200:00+23s611845 0.3 1016788
03:00+23sse6108012 0.3 1015688
06:00+22sse48835 0.1 1016413
09:00+26sse71064100 0.3 10171302
12:00+28s8105555 0.1 10161459
15:00+27s810585 0.1 10141243
18:00+24s6107427 0.0 1014924
21:00+23s5108398 0.0 1016655
13 august, sat
sat1300:00+23s51085100 0.1 1016602
03:00+22s61183100 0.1 1014689
06:00+22s598497 0.1 1015482
09:00+25s697228 0.7 10171011
12:00+28s895897 0.2 10161328
15:00+27sse895956 0.2 10131219
18:00+24s69775 0.0 1013863
21:00+23s6108598 0.0 1014628
14 august, sun
sun1400:00+23sse6118692 0.0 1014620
03:00+22s598758 0.1 1013464
06:00+22s4989100 0.4 1014367
09:00+26s677188 0.7 10161013
12:00+28sse775915 0.1 10151326
15:00+28sse6759100 0.1 10121193
18:00+24sse5879100 0.0 1012675
21:00+23sse598886 0.1 1013436